Regional Weather Roundup
Issued by NWS New Orleans/Baton Rouge, LA

Home | Current Version | Previous Version | Text Only | Print | Product List | Glossary Off
Versions: 1 2 3 4 5 6 7 8 9 10 11 12 13 14 15 16 17 18 19 20 21 22 23 24 25 26 27 28 29 30 31 32 33 34 35 36 37 38 39 40 41 42 43 44 45 46 47 48 49 50

077
ASUS44 KLIX 180705
RWRLIX
NEW ORLEANS REGIONAL WEATHER ROUNDUP
NATIONAL WEATHER SERVICE NEW ORLEANS LA
100 AM CST THU DEC 18 2014

NOTE: "FAIR" INDICATES FEW OR NO CLOUDS BELOW 12,000 FEET WITH NO
      SIGNIFICANT WEATHER AND/OR OBSTRUCTIONS TO VISIBILITY.
      SKY/WX - SKY CONDITION AND SIGNIFICANT WEATHER.
      TMP - AIR TEMPERATURE.     DP    - DEWPOINT TEMPERATURE.
      RH  - RELATIVE HUMIDITY.   PRES  - PRESSURE.
      HI  - HEAT INDEX.          WCI   - WIND CHILL INDEX.

*  THESE STATIONS ARE NOT NWS OR FAA STATIONS AND ARE NOT UNDER
   NWS QUALITY CONTROL.

LAZ038-040-048-061>063-065>067-069-180800-
SOUTHEAST LOUISIANA

CITY           SKY/WX    TMP DP  RH WIND       PRES   REMARKS
N.O. AUDUBON     N/A     53  44  73 MISG        N/A
N.O. INTL ARPT MOCLDY    50  41  71 E3        30.17S
N.O. LAKEFRONT MOCLDY    55  46  71 E7        30.18F
N.O. DOWNTOWN*   N/A     55  41  58 E5        30.18R
SLIDELL        MOCLDY    44  40  85 CALM      30.16F
BATON ROUGE    PTCLDY    45  41  86 NE5       30.18S
BOOTHVILLE     CLOUDY    55  50  83 NE6       30.18S
BELLE CHASSE   MOCLDY    45  42  89 CALM      30.17S
BOGALUSA*        N/A     42  39  89 CALM      30.19F
GALLIANO*      CLOUDY    55  48  75 MISG      30.17F
NEW ROADS*       N/A     44  42  90 CALM      30.18S
GONZALES*        N/A     45  43  95 CALM      30.16F
HAMMOND*       NOT AVBL
HOUMA*         MOCLDY    49  46  92 E3        30.15F
PORT FOURCHON* SUNNY     59  54  82 NE7       30.19F

$$

MSZ070-080>082-180800-
SOUTHERN MISSISSIPPI

CITY           SKY/WX    TMP DP  RH WIND       PRES   REMARKS
MCCOMB         PTCLDY    43  40  89 CALM      30.19R
GULFPORT       CLOUDY    46  43  89 CALM      30.18R
BILOXI         CLOUDY    48  42  79 NE2       30.18R
PASCAGOULA     CLOUDY    42  40  92 CALM      30.19S

$$

COASTAL OBSERVATIONS
LAKE AND NEARSHORE STATIONS

STATION/POSITION TIME  TEMP    WIND        PRES    WAVE
                       AIR SEA DIR/SP/G            HT/PER
                 (UTC) (F)     (DEG/KT/KT) (MB)    (FT/S)
PASCAGOULA       0700   49      40/  4/  5 1021.6
WAVELAND YACHT   0700   52      40/  5/  6 1021.0
GRAND ISLE       0700   58 62   80/  8/ 10 1021.9
SOUTHWEST PASS   0700   56                 1021.4
NEW CANAL        0700   52 57     CALM     1022.0
SHELL BEACH      0700   56 59   80/  9/ 10 1021.4

OFFSHORE STATIONS

STATION/POSITION TIME  TEMP    WIND        PRES    WAVE
                       AIR SEA DIR/SP/G            HT/PER
                 (UTC) (F)     (DEG/KT/KT) (MB)    (FT/S)
64 S DAUPHIN ISL 0700   62 74   CALM  /  2 1021.4    1/ 4

$$




USA.gov is the U.S. government's official web portal to all federal, state and local government web resources and services.